Regional Weather Roundup
Issued by NWS

Home | Current Version | Previous Version | Text Only | Print | Product List | Glossary Off
Versions: 1 2 3 4 5 6 7 8 9 10 11 12 13 14 15 16 17 18 19 20 21 22 23 24 25 26 27 28 29 30 31 32 33 34 35 36 37 38 39 40 41 42 43 44 45 46 47 48 49 50

587
ASUS43 KOAX 262110
RWRNE

WEATHER ROUNDUP FOR NEBRASKA
NATIONAL WEATHER SERVICE OMAHA NE
300 PM CST SUN FEB 26 2017

NOTES: SATELLITE DATA IS BEING USED TO AUGMENT CLOUD COVER ABOVE
       12000 FEET.
       "FAIR" INDICATES FEW OR NO CLOUDS BELOW 12,000 FEET WITH NO
       SIGNIFICANT WEATHER AND/OR OBSTRUCTIONS TO VISIBILITY.

  * THESE STATIONS DO NOT REPORT WEATHER SUCH AS RAIN...SNOW OR FOG.

NEZ001>004-019>022-054>056-262200-
NEBRASKA PANHANDLE

CITY           SKY/WX    TMP DP  RH WIND       PRES   REMARKS
SCOTTSBLUFF    SUNNY     32  16  51 W16       29.82F WCI  21
ALLIANCE       SUNNY     26  17  68 W10       29.81F WCI  16
CHADRON        SUNNY     26  12  55 W8        29.83F WCI  18
KIMBALL        SUNNY     33  17  51 SW12      29.80F WCI  24
SIDNEY         SUNNY     34  14  43 W14       29.82F WCI  25
$$

NEZ057>060-069>072-079>082-262200-
SOUTHWEST NEBRASKA

CITY           SKY/WX    TMP DP  RH WIND       PRES   REMARKS
NORTH PLATTE   SUNNY     40  12  32 W13       29.88S WCI  32
IMPERIAL       SUNNY     40  13  33 NW14      29.87F WCI  32
LEXINGTON      SUNNY     41  13  31 NW10      29.88F
MCCOOK         SUNNY     44   7  21 W14G22    29.88F
OGALLALA       SUNNY     38  14  37 NW16G25   29.85F WCI  29
$$

NEZ005>010-023>029-035>040-094-262200-
NORTH CENTRAL NEBRASKA

CITY           SKY/WX    TMP DP  RH WIND       PRES   REMARKS
VALENTINE      SUNNY     30  16  56 SW13      29.83F WCI  20
AINSWORTH      SUNNY     34  20  56 W10       29.84F WCI  26
BROKEN BOW     SUNNY     38  20  48 VRB5      29.86F WCI  34
O`NEILL        SUNNY     35  21  55 SW10      29.87F WCI  28
ORD            SUNNY     38  14  37 W6        29.87F WCI  33
THEDFORD       SUNNY     33  16  49 W8        29.86F WCI  25
$$

NEZ041-046>049-061>064-073>077-083>087-262200-
SOUTH CENTRAL NEBRASKA

CITY           SKY/WX    TMP DP  RH WIND       PRES   REMARKS
GRAND ISLAND   SUNNY     44  19  36 NW6       29.89F
AURORA         SUNNY     42  19  39 N3        29.89F
HASTINGS       SUNNY     45  11  25 W13G22    29.89F
HEBRON         SUNNY     47  11  23 W8        29.90F
HOLDREGE       SUNNY     44  10  26 W8        29.88F
KEARNEY *      SUNNY     43  12  28 NW14      29.89F
YORK           SUNNY     41  23  48 CALM      29.91S
$$

NEZ011>018-030>034-042>045-262200-
NORTHEAST NEBRASKA

CITY           SKY/WX    TMP DP  RH WIND       PRES   REMARKS
NORFOLK        SUNNY     36  23  59 VRB7      29.90S WCI  30
ALBION         SUNNY     39  21  47 SW5       29.90S
BLAIR          SUNNY     40  26  55 CALM      29.92F
FREMONT        SUNNY     40  24  52 CALM      29.93F
TEKAMAH        SUNNY     36  23  59 CALM      29.94S
WAYNE          SUNNY     35  24  63 SW6       29.91S WCI  30
$$

NEZ050>053-065>068-078-088>093-262200-
SOUTHEAST NEBRASKA

CITY           SKY/WX    TMP DP  RH WIND       PRES   REMARKS
LINCOLN        SUNNY     45  22  40 VRB3      29.94F
OMAHA EPPLEY   MOSUNNY   44  22  41 CALM      29.93F
BEATRICE       SUNNY     49  15  25 NW12      29.90F
FALLS CITY     PTSUNNY   53  22  29 SW13G18   29.90F
NEBRASKA CITY  SUNNY     48  16  27 NW12      29.91F
PLATTSMOUTH    SUNNY     44  17  33 W9        29.92F
$$

NEZ044-045-051>053-067-262200-
OMAHA AREA

CITY           SKY/WX    TMP DP  RH WIND       PRES   REMARKS
OMAHA EPPLEY   MOSUNNY   44  22  41 CALM      29.93F
BLAIR          SUNNY     40  26  55 CALM      29.92F
FREMONT        SUNNY     40  24  52 CALM      29.93F
MILLARD        SUNNY     44  24  45 W6        29.93F
OFFUTT AFB     SUNNY     44  20  39 NW8       29.93F
PLATTSMOUTH    SUNNY     44  17  33 W9        29.92F
WAHOO          FAIR      40  23  49 CALM      29.93F
$$




USA.gov is the U.S. government's official web portal to all federal, state and local government web resources and services.